Regional Weather Roundup
Issued by NWS

Home | Current Version | Previous Version | Graphics & Text | Print | Product List | Glossary On
Versions: 1 2 3 4 5 6 7 8 9 10 11 12 13 14 15 16 17 18 19 20 21 22 23 24 25 26 27 28 29 30 31 32 33 34 35 36 37 38 39 40 41 42 43 44 45 46 47 48 49 50
000
ASUS43 KOAX 270302
RWRNE

WEATHER ROUNDUP FOR NEBRASKA
NATIONAL WEATHER SERVICE OMAHA NE
1000 PM CDT THU MAR 26 2015

NOTES: SATELLITE DATA IS BEING USED TO AUGMENT CLOUD COVER ABOVE
       12000 FEET.
       "FAIR" INDICATES FEW OR NO CLOUDS BELOW 12,000 FEET WITH NO
       SIGNIFICANT WEATHER AND/OR OBSTRUCTIONS TO VISIBILITY.

  * THESE STATIONS DO NOT REPORT WEATHER SUCH AS RAIN...SNOW OR FOG.

NEZ001>004-019>022-054>056-270400-
NEBRASKA PANHANDLE

CITY           SKY/WX    TMP DP  RH WIND       PRES   REMARKS
SCOTTSBLUFF    CLOUDY    45  34  65 SE5       30.15R
ALLIANCE       CLOUDY    40  28  62 NE8       30.13S WCI  34
CHADRON        CLOUDY    41  30  65 CALM      30.14S
KIMBALL        CLOUDY    42  32  67 N8        30.15R
SIDNEY         CLOUDY    45  33  63 NE7       30.15R
$$

NEZ057>060-069>072-079>082-270400-
SOUTHWEST NEBRASKA

CITY           SKY/WX    TMP DP  RH WIND       PRES   REMARKS
NORTH PLATTE   CLOUDY    37  28  70 NE10      30.19R WCI  30
IMPERIAL         N/A     43  28  55 NE8       30.15R
MCCOOK         PTCLDY    44  29  55 NE20G28   30.15R
$$

NEZ005>010-023>029-035>040-094-270400-
NORTH CENTRAL NEBRASKA

CITY           SKY/WX    TMP DP  RH WIND       PRES   REMARKS
VALENTINE      CLOUDY    33  27  78 NE10      30.21R WCI  25
AINSWORTH      CLOUDY    33  28  82 NE10      30.22R WCI  25
BROKEN BOW     CLOUDY    33  27  78 N7        30.19R WCI  27
ORD            CLOUDY    34  28  79 NE10      30.21R WCI  26
$$

NEZ041-046>049-061>064-073>077-083>087-270400-
SOUTH CENTRAL NEBRASKA

CITY           SKY/WX    TMP DP  RH WIND       PRES   REMARKS
GRAND ISLAND   CLOUDY    34  29  82 N15       30.22R WCI  24
AURORA         CLOUDY    34  32  93 N10       30.20R WCI  26
HASTINGS       CLOUDY    34  30  85 NE13      30.19R WCI  25
HEBRON         CLOUDY    35  32  89 NE12G18   30.18R WCI  27
HOLDREGE       CLOUDY    35  30  82 NE18      30.18R WCI  24
KEARNEY *      CLOUDY    34  27  75 NE12      30.20R WCI  25
YORK           CLOUDY    34  32  93 NE12      30.20R WCI  25
$$

NEZ011>018-030>034-042>045-270400-
NORTHEAST NEBRASKA

CITY           SKY/WX    TMP DP  RH WIND       PRES   REMARKS
NORFOLK        PTCLDY    31  28  89 NW8       30.21R WCI  23
ALBION         CLOUDY    33  28  83 N7        30.22R WCI  27
BLAIR          MOCLDY    34  31  90 NW8       30.18R WCI  27
COLUMBUS *     CLOUDY    34  25  69 N9        30.23R WCI  26
FREMONT        CLOUDY    34  33  94 NW5       30.20S WCI  30
TEKAMAH        CLOUDY    34  30  85 NW23      30.20R WCI  22
$$

NEZ050>053-065>068-078-088>093-270400-
SOUTHEAST NEBRASKA

CITY           SKY/WX    TMP DP  RH WIND       PRES   REMARKS
LINCOLN        CLOUDY    33  33 100 N8        30.21R WCI  26
OMAHA EPPLEY   CLOUDY    34  32  92 N7        30.19R WCI  28
BEATRICE       CLOUDY    34  33  95 NE10      30.18R WCI  26
FALLS CITY     LGT RAIN  36  33  89 NE9       30.16R WCI  29
NEBRASKA CITY  CLOUDY    34  34 100 N7        30.18R WCI  28
PLATTSMOUTH    CLOUDY    34  32  93 N5        30.18R WCI  30
$$

NEZ044-045-051>053-067-270400-
OMAHA AREA

CITY           SKY/WX    TMP DP  RH WIND       PRES   REMARKS
OMAHA EPPLEY   CLOUDY    34  32  92 N7        30.19R WCI  28
BLAIR          MOCLDY    34  31  90 NW8       30.18R WCI  27
FREMONT        CLOUDY    34  33  94 NW5       30.20S WCI  30
OFFUTT AFB     MOCLDY    35  32  90 N3        30.18R
PLATTSMOUTH    CLOUDY    34  32  93 N5        30.18R WCI  30
WAHOO          FAIR      33  31  92 N6        30.20R WCI  27
$$



USA.gov is the U.S. government's official web portal to all federal, state and local government web resources and services.